www.pogodaiklimat.ru

Погода и климат >> Архив погоды >> Канада >> Sault Ste Marie


ПОГОДА в Sault Ste Marie

  • Прогноз погоды в Sault Ste Marie
  • Монитор погоды в Sault Ste Marie
  • Климат города

АРХИВ ПОГОДЫ в Sault Ste Marie

Время (UTC), дата Ветер
(напр.,м/с)
 
Видим.   Явления Облачность Т
(С)
Тd
(С)
f
(%)
Тe
(С)
Тes
(С)
Комфортность P
(гПа)
Po
(гПа)
Тmin
(С)
Tmax
(С)
R
(мм)
R24
(мм)
S
(см)
09 11.08 Ю 2 8000 м 10/10 300 м
[]
+16.6 +16.2 97 +17 +17 1012.3 989.4
12 11.08 СВ 1 11 км 4/4 <50 м
[]
+16.6 +16.5 99 +17 +18 1014.4 991.5 +13.5 +26.9 0.4
15 11.08 З 6 24 км 1/1 300 м
[]
+20.6 +15.9 74 +24 +28 комфорт 1015.8 992.8
18 11.08 З 5 24 км 1/1 600 м
[]
+22.4 +14.7 62 +26 +33 жарко 1016.2 993.2 +13.5 +22.9
21 11.08 З 6 24 км 3/3 1000 м
[]
+23.5 +14.3 56 +26 +29 жарко 1015.8 992.9
00 12.08 СЗ 3 24 км 1/1 600 м
[]
+20.9 +14.5 67 +24 +24 комфорт 1016.8 993.8 +13.7 +25.6
03 12.08 СЗ 5 24 км 3/3 300 м
[]
+17.6 +15.9 90 +17 +17 1017.9 994.9
06 12.08 СЗ 3 24 км ясно +16.9 +16.0 94 +17 +17 1018.8 995.8 +13.7 +25.6 2
09 12.08 З 4 800 м 3/3 <50 м
[]
+16.9 +16.7 99 +16 +16 1019.0 996.0
12 12.08 СЗ 3 1200 м 5/5 <50 м
[]
+17.6 +17.4 99 +18 +18 1020.6 997.5 +14.0 +25.6
15 12.08 СЗ 2 16 км 4/4 50 м
[]
+20.9 +18.4 86 +26 +32 душно 1021.4 998.3
18 12.08 З 5 24 км 8/8 1500 м
[]
+23.0 +18.8 77 +29 +31 очень
душно
1020.9 997.9 +14.0 +25.2
21 12.08 З 3 24 км 6/6 1500 м
[]
+26.9 +18.4 60 +32 +34 очень
душно
1019.8 996.9
00 13.08 З 2 24 км 8/0
[]
+20.6 +18.3 87 +25 +25 комфорт 1019.6 996.6 +14.0 +27.4
03 13.08 С 1 16 км 8/0
[]
+16.0 +15.8 99 +17 +17 1020.4 997.3
06 13.08 В 1 16 км 9/0
[]
+14.2 +14.1 99 +14 +14 1020.7 997.6 +12.6 +27.4
09 13.08 В 1 16 км 10/0
[]
+15.7 +15.5 99 +16 +16 1020.0 997.0
12 13.08 В 2 19 км 4/0
[]
+16.4 +16.3 99 +16 +17 1020.3 997.2 +12.6 +27.4
15 13.08 ЮВ 2 24 км 8/0
[]
+22.8 +17.3 71 +28 +34 душно 1019.7 996.7
18 13.08 Ю 2 24 км 3/3 1000 м
[]
+27.5 +18.2 57 +32 +43 очень
душно
1018.1 995.2 +12.6 +28.0
21 13.08 Ю 2 24 км 5/5 1500 м
[]
+28.9 +17.4 50 +33 +37 очень
душно
1015.9 993.1
00 14.08 Ю 2 24 км 6/0
[]
+25.2 +16.5 59 +29 +29 душно 1014.7 991.8 +12.9 +29.4
03 14.08 Ю 2 24 км 4/0
[]
+17.9 +17.1 95 +19 +19 1014.9 992.0
06 14.08 В 2 24 км 6/0
[]
+14.7 +14.5 99 +15 +15 1014.3 991.5 +12.9 +29.4
09 14.08 ЮВ 1 16 км 9/0
[]
+14.2 +14.0 99 +14 +14 1012.5 989.7
12 14.08 В 2 2400 м 8/8 50 м
[]
+18.1 +18.0 99 +19 +19 1012.4 989.6 +13.1 +29.4
15 14.08 В 3 24 км 8/8 1500 м
[]
+24.7 +20.5 77 +31 +32 очень
душно
1012.1 989.3
18 14.08 СЗ 4 24 км 4/4 1500 м
[]
+29.7 +20.4 57 +36 +43 очень
душно
1011.0 988.3 +13.1 +29.8
21 14.08 З 6 24 км 8/8 1000 м
[]
+22.3 +18.7 80 +28 +28 душно 1011.9 989.0
00 15.08 СЗ 3 16 км 9/9 600 м
[]
+21.8 +16.3 71 +26 +26 душно 1012.8 989.9 +13.1 +30.5
03 15.08 СЗ 2 16 км 8/0
[]
+18.1 +15.3 84 +19 +19 1012.2 989.4
06 15.08 С 2 16 км 9/0
[]
+16.6 +14.6 88 +17 +17 1012.9 990.2 +13.1 +30.5 22
09 15.08 СЗ 2 24 км 9/9 1000 м
[]
+16.6 +15.4 93 +17 +17 1013.4 990.5
12 15.08 СЗ 2 24 км 9/9 600 м
[]
+17.8 +15.5 86 +19 +19 1014.8 991.9 +15.0 +30.5
15 15.08 СЗ 3 24 км 8/0
[]
+21.3 +15.2 68 +24 +30 комфорт 1015.4 992.5
18 15.08 З 6 24 км 3/3 1000 м
[]
+23.0 +15.9 64 +27 +31 душно 1015.2 992.3 +15.0 +25.4
21 15.08 З 6 24 км ясно +22.1 +15.4 66 +26 +29 душно 1015.2 992.3
00 16.08 С 3 24 км 8/0 2000 м
[]
+20.9 +13.1 61 +24 +24 комфорт 1015.2 992.3 +15.0 +25.4
03 16.08 СЗ 4 24 км 6/0 2000 м
[]
+17.7 +14.8 83 +18 +18 1015.7 992.8
06 16.08 С 2 24 км 5/0 2000 м
[]
+14.6 +13.3 92 +14 +14 1016.2 993.2 +13.6 +25.4 0.0 18
09 16.08 В 1 24 км 9/9 1000 м
[]
+12.8 +12.2 96 +13 +13 1015.9 992.9
12 16.08 В 2 24 км 9/9 1000 м
[]
+17.5 +14.7 84 +18 +18 1016.7 993.7 +12.2 +25.4
15 16.08 В 2 24 км 9/9 1000 м
[]
+21.4 +15.8 70 +25 +26 комфорт 1017.2 994.2
18 16.08 Ю 3 24 км 8/8 1000 м
[]
+27.6 +16.8 52 +31 +34 душно 1016.2 993.3 +12.2 +27.6
21 16.08 В 2 24 км 9/9 1000 м
[]
+28.4 +18.3 54 +33 +34 очень
душно
1014.9 992.0
00 17.08 З 1 19 км 9/0
[]
+24.3 +19.5 75 +30 +30 очень
душно
1014.6 991.7 +12.2 +29.2
03 17.08 СЗ 1 19 км 4/0
[]
+20.1 +19.0 93 +25 +25 комфорт 1015.4 992.5
06 17.08 С 1 19 км 3/0
[]
+17.2 +16.9 98 +19 +19 1014.9 992.1 +12.2 +29.2
09 17.08 С 2 24 км 5/5 1000 м
[]
+16.1 +15.7 97 +16 +16 1014.4 991.6
12 17.08 СЗ 1 24 км 10/10 1500 м
[]
+20.5 +19.0 91 +26 +26 душно 1015.3 992.5 +15.9 +29.2
15 17.08 З 5 24 км 6/6 300 м
[]
+22.7 +19.4 82 +29 +31 очень
душно
1015.3 992.4
18 17.08 З 5 24 км 8/8 600 м
[]
+24.8 +17.6 64 +29 +30 душно 1014.7 991.8 +15.9 +24.9
21 17.08 СЗ 7 24 км 8/8 1000 м
[]
+26.3 +17.7 59 +31 +31 душно 1014.2 991.4
00 18.08 СВ 4 19 км 10/0
[]
+23.1 +16.7 67 +28 +28 душно 1015.1 992.3 +15.9 +26.6
03 18.08 СВ 2 24 км 10/0
[]
+17.8 +13.8 77 +18 +18 1016.4 993.5

 

Местоположение метеостанции Sault Ste Marie (Канада): широта 46.48 долгота -84.50 высота над уровнем моря 192 м.

В архиве по умолчанию представлена погода в Sault Ste Marie за последнюю неделю. Архивные данные за месяц целиком и за предыдущие месяцы, начиная с января 2011 года, Вы можете получить, выбрав интересующий диапазон дат из раскрывающегося списка и нажав кнопку "Ввод!".


*Определитесь, кто Вы:
робот инопланетянин человек

Внимание! Время в таблицах - всемирное. Для получения местного времени необходимо прибавить поправку, которая в Sault Ste Marie равна -5 ч.

Смотрите также архив погоды в соседних городах и на ближайших метеорологических станциях:

Погода в Montreal River Radar (Канада) (87 км)
Погода в Caribou Island (Канада) (138 км)
Погода в Lake Superior Provincial Park (Канада) (139 км)
Погода в Elliott Lake (Канада) (149 км)
Погода в Great Duck Island (Канада) (152 км)
Погода в Gore Bay Airport (Канада) (164 км)
Погода в Wawa (Канада) (167 км)
Погода в Chapleau A (Канада) (173 км)
Погода в Killarney (Канада) (239 км)
Погода в Cove Island (Канада) (250 км)

Пояснения к столбцам:

Ветер - указаны скорость ветра в м/с - средняя за 10 мин, порывы в срок и между сроками (в фигурных скобках) и направление, откуда дует ветер: С - северный, СВ - северо-восточный, В - восточный, ЮВ - юго-восточный, Ю - южный, ЮЗ - юго-западный, З - западный, СЗ - северо-западный.
Видимость - горизонтальная дальность видимости в метрах или километрах. При видимости от 1 до 10 км при отсутствии осадков обычно наблюдается дымка, при ухудшении видимости до 1 км и менее - туман. В сухую погоду видимость может ухудшаться дымом, пылью или мглою.
Явления - указаны атмосферные явления, наблюдавшиеся в срок или в последний час перед сроком; фигурными скобками обозначены явления, наблюдавшиеся между сроками (за 1-3 часа до срока); квадратными скобками обозначены град или гололедные отложения с указанием их диаметра в мм.
Облачность - указаны через наклонную черту общая и нижняя облачность в баллах и высота нижней границы облаков в метрах; квадратными скобками обозначены формы облаков: Ci - перистые, Cs - перисто-слоистые, Cc - перисто-кучевые, Ac - высококучевые, As - высокослоистые, Sc - слоисто-кучевые, Ns - слоисто-дождевые, Cu - кучевые, Cb - кучево-дождевые. Подробнее классификацию облаков см. в Атласе облаков (PDF).
T - Температура воздуха - температура, измеренная на высоте 2 м над землей.
Td - Температура точки росы - температура, при понижении до которой содержащийся в воздухе водяной пар достигнет насыщения.
f - Относительная влажность воздуха - влажноcть воздуха, измеренная на высоте 2 м над землей.
Te - Эффективная температура - температура, которую ощущает одетый по сезону человек в тени. Характеристика душности погоды. При расчете учитывается влияние влажности воздуха и скорости ветра на теплоощущения человека.
Tes - Эффективная температура на солнце - температура, которую ощущает человек, с поправкой на солнечный нагрев. Характеристика знойности погоды. Зависит от высоты солнца над горизонтом, облачности и скорости ветра. Ночью, в пасмурную погоду, а также при ветре 12 м/с и более поправка равна нулю.
P - Атмосферное давление - приведенное к уровню моря атмосферное давление.
Po - Атмосферное давление - измеренное на уровне метеостанции атмосферное давление.
Tmin - Минимальная температура - минимум температуры воздуха на высоте 2 м над землей.
Tmax - Максимальная температура - максимум температуры воздуха на высоте 2 м над землей.
R - Количество осадков - Количество выпавших осадков за период времени, мм. При наведении курсора мыши на число - период времени, за который выпало указанное количество осадков.
R24 - Количество осадков - Количество выпавших осадков за 24 часа, мм.
S - Снежный покров - Высота снежного покрова, см. При наведении курсора мыши на число - состояние снежного покрова и степень покрытия местности в баллах.